Terminal Aerodrome Forecast
Issued by NWS

Home | Current Version | Previous Version | Text Only | Print | Product List | Glossary On
Versions: 1 2 3 4 5 6 7 8 9 10 11 12 13 14 15
000
FTUS42 TJSJ 281120
TAFKPK
TAF
TKPK 281120Z 2812/2912 09012KT P6SM VCSH SCT020 BKN100
     FM282300 08010KT P6SM FEW020 BKN080
      AMD NOT SKED 2902/2911=

USA.gov is the U.S. government's official web portal to all federal, state and local government web resources and services.